AirNav   Air Wisconsin pilot careers
 
 1029 users online  

KFZI Fostoria Metropolitan Airport
Fostoria, Ohio, USA

GOING TO FOSTORIA?


FAA INFORMATION EFFECTIVE 25 APRIL 2019

Location

FAA Identifier: FZI
Lat/Long: 41-11-27.0000N / 083-23-35.1000W
41-11.450000N / 083-23.585000W
41.1908333 / -83.3930833
(estimated)
Elevation: 751.6 ft. / 229.1 m (surveyed)
Variation: 05W (1985)
From city: 2 miles NE of FOSTORIA, OH
Time zone: UTC -4 (UTC -5 during Standard Time)
Zip code: 44830

Airport Operations

Airport use: Open to the public
Activation date: 08/1972
Control tower: no
ARTCC: CLEVELAND CENTER
FSS: CLEVELAND FLIGHT SERVICE STATION
NOTAMs facility: CLE (NOTAM-D service available)
Attendance: MON-SAT 0800-1700
Wind indicator: lighted
Segmented circle: yes
Lights: ACTIVATE MIRL RY 09/27 AND REIL RYS 09 & 27-CTAF.
Beacon: white-green (lighted land airport)
Operates sunset to sunrise.

Airport Communications

CTAF/UNICOM: 122.7
WX AWOS-3: 124.625 (419-436-0053)
TOLEDO APPROACH: 126.1
TOLEDO DEPARTURE: 126.1
WX AWOS-3 at 16G (10 nm SE): 127.175 (419-443-1043)
WX AWOS-3 at 1G0 (16 nm NW): 120.725 (419-354-1415)
WX ASOS at FDY (16 nm SW): 132.85 (419-427-8524)
WX AWOS-3 at S24 (17 nm E): 119.575 (419-547-6932)

Nearby radio navigation aids

VOR radial/distance  VOR name  Freq  Var
VWVr147/19.2WATERVILLE VOR/DME113.1002W
FBCr051/21.7FLAG CITY VORTAC108.2002W
BUDr342/(37.6)BUCKEYE VOR109.8005W

 
NDB name  Hdg/Dist  Freq  Var  ID
TIFFIN311/9.926905WTII - .. ..
PORT CLINTON237/30.742307WPCW .--. -.-. .--

Airport Services

Fuel available: 100LL JET-A+
Parking: tiedowns
Airframe service: MAJOR
Powerplant service: MAJOR

Runway Information

Runway 9/27

Dimensions: 5005 x 100 ft. / 1526 x 30 m
Surface: asphalt, in good condition
Weight bearing capacity: 
Single wheel: 30.0
Double wheel: 35.0
Double tandem: 52.0
Runway edge lights: medium intensity
RUNWAY 9  RUNWAY 27
Latitude: 41-11.449085N41-11.450857N
Longitude: 083-24.129653W083-23.038562W
Elevation: 751.4 ft.751.5 ft.
Traffic pattern: leftleft
Runway heading: 095 magnetic, 090 true275 magnetic, 270 true
Markings: nonprecision, in good conditionnonprecision, in good condition
Visual slope indicator: 4-light PAPI on left (3.00 degrees glide path)4-light PAPI on left (3.00 degrees glide path)
Runway end identifier lights: yesyes
Touchdown point: yes, no lightsyes, no lights
Obstructions: 80 ft. trees, 3500 ft. from runway, 185 ft. right of centerline, 41:1 slope to clear15 ft. road, 710 ft. from runway, 34:1 slope to clear

Airport Ownership and Management from official FAA records

Ownership: Publicly-owned
Owner: CITY OF FOSTORIA
4495 N. SENECA COUNTY RD 25
FOSTORIA, OH 44830
Phone 419-435-2561
Manager: DAVID SNIFFEN
4495 N. SENECA COUNTY RD. 25
FOSTORIA, OH 44830
Phone 419-435-0157

Airport Operational Statistics

Aircraft based on the field: 15
Single engine airplanes: 13
Multi engine airplanes: 1
Jet airplanes: 1
    
Aircraft operations: avg 22/day *
57% transient general aviation
38% local general aviation
5% air taxi
* for 12-month period ending 04 October 2018

Instrument Procedures

NOTE: All procedures below are presented as PDF files. If you need a reader for these files, you should download the free Adobe Reader.

NOT FOR NAVIGATION. Please procure official charts for flight.
FAA instrument procedures published for use from 25 April 2019 at 0901Z to 23 May 2019 at 0900Z.

 
IAPs - Instrument Approach Procedures
RNAV (GPS) RWY 09   download (218KB)
RNAV (GPS) RWY 27   download (195KB)
VOR-A   download (154KB)
NOTE: Special Alternate Minimums apply   download (34KB)
NOTE: Special Take-Off Minimums/Departure Procedures apply   download (164KB)

Other nearby airports with instrument procedures:

16G - Seneca County Airport (10 nm SE)
14G - Fremont Airport (13 nm NE)
1G0 - Wood County Airport (16 nm NW)
KFDY - Findlay Airport (16 nm SW)
S24 - Sandusky County Regional Airport (17 nm E)
56D - Wyandot County Airport (19 nm S)
 
Loc | Ops | Rwys | IFR | FBO | Links
Com | Nav | Svcs | Stats | Notes
Area around KFZI (Fostoria Metropolitan Airport)
 
Road maps at: MapQuest Bing Google
 
Aerial photo
WARNING: Photo may not be current or correct
Aerial photo of KFZI (Fostoria Metropolitan Airport)
Photo taken 01-Nov-2009

Do you have a better or more recent aerial photo of Fostoria Metropolitan Airport that you would like to share? If so, please send us your photo.

 
Sectional chart

 
Airport distance calculator
Flying to Fostoria Metropolitan Airport? Find the distance to fly.

From to KFZI

Sunrise and sunset
Times for 19-May-2019
 Local
(UTC-4)
 Zulu
(UTC)
Morning civil twilight05:4109:41
Sunrise06:1310:13
Sunset20:4800:48
Evening civil twilight21:1901:19

Current date and time
Zulu (UTC)  19-May-2019 19:55:41
Local (UTC-4)  19-May-2019 15:55:41
 
METAR
KFDY 
16nm SW 
191853Z AUTO 24012G31KT 8SM -RA FEW030 BKN050 OVC060 22/18 A2976 RMK AO2 PK WND 25031/1846 RAE03B43 SLP069 P0000 T02170183
KTDZ 
23nm N 
191934Z AUTO 24021G28KT 1 3/4SM +RA BR FEW013 BKN035 OVC046 19/17 A2977 RMK AO2 PK WND 22035/1908 RAB1858 PRESRR P0030 T01940172
KOWX 
28nm W 
191935Z AUTO 27017G24KT 3SM SCT012 BKN022 OVC055 17/16 A2980 RMK AO1
KTOL 
30nm NW 
191937Z 22013KT 4SM RA BR SCT042 BKN065 OVC080 18/17 A2977 RMK AO2 PK WND 25035/1905 P0065 T01830167
KPCW 
31nm NE 
191935Z AUTO 23011KT 9SM FEW042 FEW065 BKN080 24/17 A2973 RMK AO2
TAF
KFDY 
16nm SW 
191739Z 1918/2018 20020G32KT P6SM -SHRA BKN050 OVC070 TEMPO 1919/1920 22022G35KT 5SM -TSRA BKN035CB FM192300 22018G28KT P6SM VCSH SCT050 OVC090 FM200300 21014KT P6SM BKN090 FM201000 26013KT P6SM BKN030
NOTAMs
Click for the latest NOTAMs
NOTAMs are issued by the DoD/FAA and will open in a separate window not controlled by AirNav.

 

 
 

FBO, Fuel Providers, and Aircraft Ground Support

  
 Business Name 
 
 Contact 
 
 Services / Description 
 
Fuel Prices
 
Comments
  
Fostoria Metro Aviation 419-435-0157
no information available

If you are affiliated with Fostoria Metro Aviation and would like to show here your services, contact info, web link, logo, and more, click here
100LL Jet A
FS $4.96 $3.98 
 Updated 04-Apr-2019
 
   1 read write
FS=Full service
Update Fuel Prices
 

Would you like to see your business listed on this page?

 If your business provides an interesting product or service to pilots, flight crews, aircraft, or users of the Fostoria Metropolitan Airport, you should consider listing it here.  To start the listing process, click on the button below
 
Add a business
 

Other Pages about Fostoria Metropolitan Airport

Update a link
 
Copyright © AirNav, LLC. All rights reserved. Privacy Policy  Contact